Regional Weather Roundup
Issued by NWS

Home | Current Version | Previous Version | Graphics & Text | Print | Product List | Glossary On
Versions: 1 2 3 4 5 6 7 8 9 10 11 12 13 14 15 16 17 18 19 20 21 22 23 24 25 26 27
000
ASUS45 KBOI 210410
RWRID

IDAHO REGIONAL WEATHER ROUNDUP
NATIONAL WEATHER SERVICE BOISE ID
1000 PM MDT SUN AUG 20 2017

NOTE: "FAIR" INDICATES FEW OR NO CLOUDS BELOW 12000 FEET
WITH NO SIGNIFICANT WEATHER AND/OR OBSTRUCTIONS TO VISIBILITY

IDZ012-014-210500-
SOUTHWEST IDAHO


CITY           SKY/WX    TMP DP  RH WIND       PRES   REMARKS
BOISE          PTCLDY    72  36  26 CALM      29.99R
CALDWELL       PTCLDY    71  44  37 CALM      29.97R
MOUNTAIN HOME  PTCLDY    67  35  30 W8        29.99R
$$

IDZ016-017-210500-
SOUTHCENTRAL IDAHO


CITY           SKY/WX    TMP DP  RH WIND       PRES   REMARKS
BURLEY         PTCLDY    63  45  51 SW7       30.03R
JEROME         PTCLDY    68  34  28 SW9       30.04R
TWIN FALLS     PTCLDY    66  34  30 SW13      30.05R
$$

IDZ019>023-210500-
SOUTHEAST IDAHO


CITY           SKY/WX    TMP DP  RH WIND       PRES   REMARKS
IDAHO FALLS    CLOUDY    73  35  25 S12       30.05R
POCATELLO      CLOUDY    73  36  25 SW12      30.05R
REXBURG        CLOUDY    71  32  23 S8        30.05R
$$

IDZ006-010-011-018-031-032-210500-
CENTRAL IDAHO MOUNTAINS


CITY           SKY/WX    TMP DP  RH WIND       PRES   REMARKS
MCCALL         MOCLDY    68  34  28 N8        30.12R
HAILEY         PTCLDY    57  37  47 CALM      30.09R
STANLEY          N/A     56  28  34 CALM      30.19R
SALMON         MOCLDY    68  35  29 CALM      30.05R
CHALLIS        MOCLDY    70  33  25 N9        30.07R HAZE
$$

IDZ002-004-006-007-026-210500-
NORTHERN IDAHO


CITY           SKY/WX    TMP DP  RH WIND       PRES   REMARKS
LEWISTON       MOCLDY    75  42  30 W6        30.01R
LOWELL           N/A     66  48  52 CALM      30.03R
COEUR D`ALENE  CLEAR     67  40  37 CALM      30.05
MULLAN PASS    PTCLDY    54  32  43 NW5       30.22R
$$




USA.gov is the U.S. government's official web portal to all federal, state and local government web resources and services.